Weather History for KDMN - June, 2013

Change the Weather History Date:

Tuesday, June 18, 2013

  Actual Average Record
Temperature  
Mean Temperature 80 °F 78 °F  
Max Temperature 99 °F 96 °F 106 °F (1948)
Min Temperature 59 °F 60 °F 41 °F (1962)
Cooling Degree Days 14    
Growing Degree Days 30 (Base 50)    
Moisture  
Dew Point 30 °F    
Average Humidity 30    
Maximum Humidity 53    
Minimum Humidity 7    
Precipitation  
Precipitation 0.00 in 0.03 in 1.52 in (1967)
Month to date precipitation T 0.20  
Year to date precipitation 0.51 2.61  
Sea Level Pressure  
Sea Level Pressure 29.74 in    
Wind  
Wind Speed 7 mph (WSW)    
Max Wind Speed 17 mph    
Max Gust Speed 26 mph    
Visibility 10 miles    
Events      
T = Trace of Precipitation, MM = Missing Value Source: NWS Daily Summary

Daily Weather History Graph

Daily Weather History Graph

Search for Another Location

Airport or City:

Trip Planner

Search our weather history database for the weather conditions in past years. The results will help you decide how hot, cold, wet, or windy it might be!

Date:

Astronomy

Jun. 18, 2013 Rise Set
Actual Time 6:04 AM MDT 8:20 PM MDT
Civil Twilight 5:35 AM MDT 8:48 PM MDT
Nautical Twilight 5:00 AM MDT 9:23 PM MDT
Astronomical Twilight 4:23 AM MDT 10:00 PM MDT
Moon 3:20 PM MDT (6/18) 1:59 AM MDT (6/18)
Length of Visible Light 15h 12m
Length of Day
14h 16m
Waxing Gibbous, 71% of the Moon is Illuminated
Jun 18
Waxing Gibbous
Jun 23
Full
Jun 29
Last Quarter
Jul 8
New
Jul 15
First Quarter

Hourly Weather History & Observations

Time (MDT) Temp. Heat Index Dew Point Humidity Pressure Visibility Wind Dir Wind Speed Gust Speed Precip Events Conditions
12:53 AM 73.9 °F - 21.0 °F 14% 29.73 in 10.0 mi SSW 6.9 mph - N/A   Clear
1:53 AM 71.1 °F - 21.0 °F 15% 29.73 in 10.0 mi Calm Calm - N/A   Clear
2:53 AM 64.9 °F - 21.9 °F 19% 29.75 in 10.0 mi NNE 4.6 mph - N/A   Clear
3:53 AM 64.0 °F - 24.1 °F 22% 29.75 in 10.0 mi WNW 6.9 mph - N/A   Clear
4:53 AM 60.1 °F - 21.0 °F 22% 29.78 in 10.0 mi East 3.5 mph - N/A   Clear
5:53 AM 63.0 °F - 21.9 °F 21% 29.79 in 10.0 mi ENE 3.5 mph - N/A   Clear
6:53 AM 66.0 °F - 48.9 °F 54% 29.81 in 9.0 mi ENE 6.9 mph - N/A   Clear
7:53 AM 72.0 °F - 54.0 °F 53% 29.83 in 10.0 mi ENE 10.4 mph - N/A   Clear
8:53 AM 78.1 °F - 54.0 °F 43% 29.83 in 10.0 mi ENE 9.2 mph - N/A   Clear
9:53 AM 82.0 °F 81.2 °F 53.1 °F 37% 29.83 in 10.0 mi East 11.5 mph - N/A   Clear
10:53 AM 84.9 °F - 51.1 °F 31% 29.83 in 10.0 mi SE 6.9 mph 17.3 mph N/A   Clear
11:53 AM 88.0 °F - 48.9 °F 26% 29.81 in 10.0 mi Variable 5.8 mph - N/A   Clear
12:53 PM 93.0 °F - 39.0 °F 15% 29.78 in 10.0 mi SSW 6.9 mph - N/A   Clear
1:53 PM 95.0 °F - 37.9 °F 14% 29.77 in 10.0 mi WSW 11.5 mph 18.4 mph N/A   Clear
2:53 PM 96.1 °F - 37.0 °F 13% 29.75 in 10.0 mi West 11.5 mph 19.6 mph N/A   Clear
3:53 PM 98.1 °F - 30.9 °F 9% 29.72 in 10.0 mi SW 11.5 mph 24.2 mph N/A   Clear
4:53 PM 99.0 °F - 25.0 °F 7% 29.69 in 10.0 mi Variable 5.8 mph - N/A   Clear
5:53 PM 99.0 °F - 26.1 °F 8% 29.66 in 10.0 mi South 10.4 mph 16.1 mph N/A   Clear
6:53 PM 98.1 °F - 17.1 °F 5% 29.65 in 10.0 mi West 13.8 mph - N/A   Clear
7:53 PM 93.9 °F - 19.0 °F 7% 29.65 in 10.0 mi West 10.4 mph - N/A   Clear
8:53 PM 89.1 °F - 16.0 °F 7% 29.65 in 10.0 mi West 8.1 mph - N/A   Clear
9:53 PM 84.9 °F - 17.1 °F 8% 29.66 in 8.0 mi West 11.5 mph - N/A   Clear
10:53 PM 82.0 °F - 12.9 °F 7% 29.68 in 10.0 mi West 9.2 mph - N/A   Clear
11:53 PM 75.0 °F - 12.0 °F 9% 29.69 in 10.0 mi NW 8.1 mph - N/A   Clear